Regional Weather Roundup
Issued by NWS

Home | Current Version | Previous Version | Text Only | Print | Product List | Glossary On
Versions: 1 2 3 4 5 6 7 8 9 10 11 12 13 14 15 16 17 18 19 20 21 22 23 24 25 26 27 28 29 30 31 32 33 34 35 36 37 38 39 40 41 42 43 44 45 46 47 48 49 50
000
ASUS46 KLOX 310002
RWRCA

SOUTHERN CALIFORNIA WEATHER ROUNDUP
NATIONAL WEATHER SERVICE OXNARD CALIFORNIA
500 PM PDT THU OCT 30 2014

NOTE: "FAIR" INDICATES FEW OR NO CLOUDS BELOW 12,000 FEET WITH NO
SIGNIFICANT WEATHER AND/OR OBSTRUCTIONS TO VISIBILITY.

  -  STATIONS PRECEEDED BY AN ASTERISK (*) ARE NOT NWS OR FAA
     STATIONS AND ARE NOT SUBJECT TO NWS AND FAA QUALITY CONTROL.

CAZ041-042-087-310100-
LA AND ORANGE COUNTY COASTAL AREAS


CITY           SKY/WX    TMP DP  RH WIND       PRES   REMARKS
L.A. DOWNTOWN  PTSUNNY   70  59  68 VRB3      29.93S
L.A. AIRPORT   CLOUDY    67  60  78 W12       29.94S
LONG BEACH     CLOUDY    70  60  70 W13       29.93S

CITY           SKY/WX    TMP DP  RH WIND       PRES   REMARKS
AVALON           N/A     70 N/A N/A S3          N/A
FULLERTON      PTSUNNY   73  58  59 W3        29.92S
*GETTY CENTER    N/A     68  59  73 S8          N/A
HAWTHORNE      PTSUNNY   69  60  73 W6        29.94S
*REDONDO BEACH   N/A     68  61  79 W1        29.93S
SANTA ANA      CLOUDY    73  60  63 SW5       29.94S
STA MONICA APT CLOUDY    68  57  68 SW8       29.94S
*STA MON PIER    N/A     67  60  80 S5        29.93S
TORRANCE       PTSUNNY   70  63  78 W12       29.94F
*UCLA            N/A     66  55  68 SW5       29.91S

$$

CAZ547-548-048-310100-
LA COUNTY VALLEYS AND INLAND EMPIRE


CITY           SKY/WX    TMP DP  RH WIND       PRES   REMARKS
BURBANK        PTSUNNY   73  56  54 S9        29.93S
VAN NUYS       PTSUNNY   77  49  37 NW5       29.92S

CITY           SKY/WX    TMP DP  RH WIND       PRES   REMARKS
CORONA AIRPORT CLOUDY    74  58  57 NW10G20   29.92R
*CHATSWORTH      N/A     73  52  47 CALM      29.89S
CHINO          PTSUNNY   74  57  55 W15       29.94R
*CLAREMONT       N/A     71  48  43 SW8         N/A
*NORTHRIDGE      N/A     73  45  35 W3          N/A
ONTARIO        PTSUNNY   76  55  48 W15G22    29.93R
*PASADENA        N/A     72  59  64 CALM        N/A
POMONA         SUNNY     72  55  56 W9        29.97
RIVERSIDE      PTSUNNY   77  47  34 W10G17    29.92R
SAN BERNARDINO PTSUNNY   77  43  29 SW16      29.92S
*WHITEMAN AP   PTSUNNY   75  48  38 SE8       29.97
*WOODLAND HILL   N/A     75  50  41 NW5         N/A

$$

CAZ054-055-310100-
LA AND SAN BERNARDINO COUNTY MOUNTAINS


CITY           SKY/WX    TMP DP  RH WIND       PRES   REMARKS
*ACTON           N/A     79  37  22 SW13        N/A
*BIG BEAR AIRP PTCLDY    59  28  31 SW3       30.18S
*BIG PINES       N/A     57  32  38 CALM        N/A
MT WILSON NWS    N/A     61  32  33 SE3         N/A
SANDBERG       PTSUNNY   67  33  28 S15       30.08R

$$

CAZ028-029-059-060-099-310100-
ANTELOPE VALLEY AND SURROUNDING AREAS


CITY           SKY/WX    TMP DP  RH WIND       PRES   REMARKS
LANCASTER      PTSUNNY   75  40  28 W13       29.97S
PALMDALE       PTSUNNY   77  29  17 W10       29.98R

CITY           SKY/WX    TMP DP  RH WIND       PRES   REMARKS
29 PALMS       PTCLDY    81  29  15 SE6       30.01F
BARSTOW/DAGGET PTCLDY    82  22  11 E15       29.92F
BISHOP         PTCLDY    75  14  10 S22G31    29.97F
CHINA LAKE     PTSUNNY   83  22  10 NW3       29.93F
MOJAVE         FAIR      75  21  13 S3        29.99R
NEEDLES        MOCLDY    88  27  11 CALM      29.91F
VICTORVILLE    MOSUNNY   79  23  12 S10       29.98F

$$

CAZ039-040-310100-
VENTURA AND SANTA BARBARA COUNTY COAST


CITY           SKY/WX    TMP DP  RH WIND       PRES   REMARKS
CAMARILLO      CLOUDY    69  59  70 S6        29.94R
NWS OXNARD       N/A     70  60  70 CALM      29.93S
OXNARD AIRPORT CLOUDY    69  61  75 W18       29.94R
*POINT MUGU    CLOUDY    70  62  76 W14       29.95R
SBA APT/GOLETA CLOUDY    71  57  61 CALM      29.93F
*SANTA BARBARA   N/A     71  57  61 CALM      30.01F
*VENTURA         N/A     73  57  57 SW10      29.99R

$$

CAZ044-045-310100-
VENTURA COUNTY VALLEYS


CITY           SKY/WX    TMP DP  RH WIND       PRES   REMARKS
*SIMI VALLEY     N/A     70  49  47 CALM      29.91S
*OJAI            N/A     74  51  44 CALM      29.90R
*FILLMORE        N/A     73  55  54 CALM      29.83F

$$

CAZ053-310100-
VENTURA COUNTY MOUNTAINS


CITY           SKY/WX    TMP DP  RH WIND       PRES   REMARKS
*LOCKWOOD VLY    N/A     63  16  16 MISG        N/A
*ROSE VALLEY     N/A     70  45  40 MISG        N/A

$$

CAZ034-035-036-310100-
CENTRAL COAST AND SANTA YNEZ VALLEY


CITY           SKY/WX    TMP DP  RH WIND       PRES   REMARKS
SAN LUIS OBISP PTSUNNY   67  57  70 SE3       29.94F
SANTA MARIA    PTSUNNY   72  57  59 CALM      29.95S

CITY           SKY/WX    TMP DP  RH WIND       PRES   REMARKS
*CAL POLY SLO    N/A     68  59  73 SE5G12      N/A
*LOMPOC        PTSUNNY   72  54  53 CALM      29.94F
*PISMO BEACH     N/A     65  60  82 SW2       29.95F
*SANTA YNEZ    FAIR      70  50  49 N3        29.95S

$$

CAZ037-038-051-310100-
SAN LUIS OBISPO COUNTY INTERIOR AND CUYAMA VALLEY


CITY           SKY/WX    TMP DP  RH WIND       PRES   REMARKS
*CUYAMA          N/A     72  43  35 NW8       29.88R
PASO ROBLES    PTSUNNY   68  48  48 SW7       29.94S

$$

CAZ032-033-061-310100-
SOUTHERN DESERTS


CITY           SKY/WX    TMP DP  RH WIND       PRES   REMARKS
BLYTHE         PTCLDY    91  31  11 CALM      29.88F
IMPERIAL       CLEAR     90  34  13 VRB5      29.85S
PALM SPRINGS   PTCLDY    88  37  16 SE9       29.89F
THERMAL        PTCLDY    85  42  22 S5        29.84S

$$

ELSEWHERE ACROSS THE WESTERN UNITED STATES AND MEXICO


CITY           SKY/WX    TMP DP  RH WIND       PRES   REMARKS
DENVER, CO     PTCLDY    53  27  36 E7        30.35R
GRAND CANYON,  MOCLDY    63  18  17 E8        30.26S
HONOLULU, HI   CLOUDY    83  67  58 NE15G24   30.01F
KAHULUI, MAUI  CLOUDY    83  63  50 NE22G28   30.01F
LAKE TAHOE, CA MOSUNNY   63  24  22 SW7       30.07F
LAS VEGAS, NV  MOCLDY    81  23  11 S5        29.94F
MAMMOTH LAKES, FAIR      63  16  16 E12       30.14S
MEXICO CITY, M MOCLDY    68  43  40 N12       30.26R
PHOENIX, AZ    CLOUDY    90  38  16 CALM      29.89F
PORTLAND, OR   CLOUDY    57  55  93 SE16      29.82S
RENO, NV       MOCLDY    66  30  26 CALM      29.98F
SALT LAKE CITY PTCLDY    61  39  44 W8        30.13F
SAN DIEGO, CA  PTSUNNY   72  61  68 W8        29.96R
SAN FRANCISCO, CLOUDY    66  55  67 SW8       29.90S
SAN JOSE, CA   PTSUNNY   71  44  37 S9        29.88F
SEATTLE, WA    CLOUDY    57  54  89 SW6       29.76S
TIJUANA, MEX   MOSUNNY   70  59  68 W10       29.98R

$$

STATION/POSITION TIME  TEMP    WIND        PRES    VSBY  WAVE
                       AIR SEA DIR/SP/G                  HT/PER
                 (UTC) (F)     (DEG/KT/KT) (MB)    (MI)  (FT/S)
POINT ARGUELLO B NOT AVBL
WEST SANTA BARBA 2300   65 64  180/  4/  6 1013.4F         6/12
POINT CONCEPTION NOT AVBL
EAST SANTA BARBA 2300   65     270/ 12       N/A
SANTA MONICA BAY 2300   65 68  280/ 10/ 10 1014.0F         3/11



USA.gov is the U.S. government's official web portal to all federal, state and local government web resources and services.